Time,TemperatureF,DewpointF,PressureIn,WindDirection,WindDirectionDegrees,WindSpeedMPH,WindSpeedGustMPH,Humidity,HourlyPrecipIn,Conditions,Clouds,dailyrainin,SoftwareType,DateUTC
2013-03-06 00:02:00,28.0,27.0,-100.00,North,355,7.0,19.0,93,2.24,,,-99.99,,2013-03-06 05:02:00,
2013-03-06 00:11:00,28.0,27.0,-100.00,North,0,6.0,19.0,93,1.10,,,-99.99,,2013-03-06 05:11:00,
2013-03-06 00:22:00,28.0,26.0,-100.00,North,5,9.0,15.0,93,1.69,,,-99.99,,2013-03-06 05:22:00,
2013-03-06 00:32:00,28.0,26.0,-100.00,North,350,9.0,19.0,93,2.83,,,-99.99,,2013-03-06 05:32:00,
2013-03-06 00:42:00,28.0,26.0,-100.00,North,350,7.0,20.0,93,2.24,,,-99.99,,2013-03-06 05:42:00,
2013-03-06 00:52:00,28.0,26.0,-100.00,North,0,8.0,19.0,93,2.83,,,-99.99,,2013-03-06 05:52:00,
2013-03-06 01:02:00,27.0,26.0,-100.00,North,0,10.0,17.0,93,2.24,,,-99.99,,2013-03-06 06:02:00,
2013-03-06 01:11:00,27.0,26.0,-100.00,North,355,9.0,21.0,93,2.24,,,-99.99,,2013-03-06 06:11:00,
2013-03-06 01:22:00,27.0,26.0,-100.00,NNW,340,11.0,20.0,93,2.83,,,-99.99,,2013-03-06 06:22:00,
2013-03-06 01:32:00,27.0,26.0,-100.00,NNW,340,10.0,21.0,93,2.83,,,-99.99,,2013-03-06 06:32:00,
2013-03-06 01:42:00,27.0,26.0,-100.00,NNW,340,9.0,21.0,93,1.69,,,-99.99,,2013-03-06 06:42:00,
2013-03-06 01:52:00,27.0,26.0,-100.00,NNW,330,9.0,21.0,93,2.83,,,-99.99,,2013-03-06 06:52:00,
2013-03-06 02:01:00,27.0,26.0,-100.00,NW,325,9.0,16.0,93,1.69,,,-99.99,,2013-03-06 07:01:00,
2013-03-06 02:11:00,27.0,26.0,-100.00,NNW,335,9.0,19.0,93,1.10,,,-99.99,,2013-03-06 07:11:00,
2013-03-06 02:22:00,27.0,26.0,-100.00,NNW,330,10.0,19.0,93,1.10,,,-99.99,,2013-03-06 07:22:00,
2013-03-06 02:32:00,27.0,26.0,-100.00,NNW,330,10.0,19.0,93,1.10,,,-99.99,,2013-03-06 07:32:00,
2013-03-06 02:42:00,27.0,26.0,-100.00,NNW,335,11.0,22.0,93,1.10,,,-99.99,,2013-03-06 07:42:00,
2013-03-06 02:52:00,27.0,26.0,-100.00,NW,310,9.0,22.0,93,1.10,,,-99.99,,2013-03-06 07:52:00,
2013-03-06 03:01:00,28.0,26.0,-100.00,NW,320,10.0,22.0,93,1.10,,,-99.99,,2013-03-06 08:01:00,
2013-03-06 03:11:00,28.0,26.0,-100.00,NW,325,10.0,21.0,93,0.55,,,-99.99,,2013-03-06 08:11:00,
2013-03-06 03:21:00,28.0,26.0,-100.00,NW,310,11.0,21.0,93,0.55,,,-99.99,,2013-03-06 08:21:00,
2013-03-06 03:32:00,28.0,26.0,-100.00,NW,320,11.0,23.0,93,0.55,,,-99.99,,2013-03-06 08:32:00,
2013-03-06 03:42:00,28.0,26.0,-100.00,NW,320,9.0,17.0,93,0.00,,,-99.99,,2013-03-06 08:42:00,
2013-03-06 03:52:00,28.0,26.0,-100.00,NW,310,14.0,19.0,93,1.69,,,-99.99,,2013-03-06 08:52:00,
2013-03-06 04:02:00,28.0,26.0,-100.00,NW,310,9.0,22.0,93,0.55,,,-99.99,,2013-03-06 09:02:00,
2013-03-06 04:12:00,28.0,26.0,-100.00,NW,320,11.0,25.0,93,1.10,,,-99.99,,2013-03-06 09:12:00,
2013-03-06 04:21:00,28.0,26.0,-100.00,NW,315,13.0,21.0,93,0.00,,,-99.99,,2013-03-06 09:21:00,
2013-03-06 04:32:00,28.0,26.0,-100.00,NW,310,11.0,21.0,93,0.00,,,-99.99,,2013-03-06 09:32:00,
2013-03-06 04:42:00,28.0,26.0,-100.00,NW,310,11.0,19.0,93,0.00,,,-99.99,,2013-03-06 09:42:00,
2013-03-06 04:51:00,28.0,26.0,-100.00,NW,305,12.0,21.0,93,0.00,,,-99.99,,2013-03-06 09:51:00,
2013-03-06 05:02:00,28.0,26.0,-100.00,NW,320,12.0,19.0,93,0.00,,,-99.99,,2013-03-06 10:02:00,
2013-03-06 05:11:00,28.0,26.0,-100.00,NW,325,12.0,20.0,93,0.00,,,-99.99,,2013-03-06 10:11:00,
2013-03-06 05:22:00,28.0,26.0,-100.00,NW,310,12.0,19.0,93,0.00,,,-99.99,,2013-03-06 10:22:00,
2013-03-06 05:32:00,28.0,26.0,-100.00,NW,310,16.0,23.0,93,0.00,,,-99.99,,2013-03-06 10:32:00,
2013-03-06 05:42:00,28.0,26.0,-100.00,NW,310,13.0,23.0,93,0.00,,,-99.99,,2013-03-06 10:42:00,
2013-03-06 05:52:00,28.0,26.0,-100.00,NW,310,14.0,21.0,93,0.00,,,-99.99,,2013-03-06 10:52:00,
2013-03-06 06:02:00,28.0,26.0,-100.00,NW,305,13.0,21.0,93,0.00,,,-99.99,,2013-03-06 11:02:00,
2013-03-06 06:11:00,27.0,26.0,-100.00,NW,305,12.0,23.0,93,0.00,,,-99.99,,2013-03-06 11:11:00,
2013-03-06 06:22:00,27.0,26.0,-100.00,NW,310,12.0,24.0,93,0.00,,,-99.99,,2013-03-06 11:22:00,
2013-03-06 06:32:00,27.0,26.0,-100.00,NW,305,13.0,22.0,93,0.00,,,-99.99,,2013-03-06 11:32:00,
2013-03-06 06:42:00,27.0,26.0,-100.00,NW,305,12.0,21.0,93,0.00,,,-99.99,,2013-03-06 11:42:00,
2013-03-06 06:52:00,27.0,26.0,-100.00,NW,320,12.0,19.0,93,0.00,,,-99.99,,2013-03-06 11:52:00,
2013-03-06 07:02:00,27.0,26.0,-100.00,NW,305,12.0,20.0,93,0.00,,,-99.99,,2013-03-06 12:02:00,
2013-03-06 07:11:00,27.0,25.0,-100.00,NW,310,12.0,21.0,93,0.00,,,-99.99,,2013-03-06 12:11:00,
2013-03-06 07:22:00,27.0,26.0,-100.00,NW,310,11.0,21.0,93,0.00,,,-99.99,,2013-03-06 12:22:00,
2013-03-06 07:33:00,27.0,26.0,-100.00,NW,310,12.0,19.0,93,0.00,,,-99.99,,2013-03-06 12:33:00,
2013-03-06 07:42:00,27.0,26.0,-100.00,WNW,300,12.0,24.0,92,0.00,,,-99.99,,2013-03-06 12:42:00,
2013-03-06 07:52:00,27.0,26.0,-100.00,NW,305,14.0,21.0,92,0.00,,,-99.99,,2013-03-06 12:52:00,
2013-03-06 08:02:00,27.0,26.0,-100.00,NW,310,12.0,21.0,92,0.00,,,-99.99,,2013-03-06 13:02:00,
2013-03-06 08:12:00,27.0,26.0,-100.00,NW,315,10.0,19.0,92,0.00,,,-99.99,,2013-03-06 13:12:00,
2013-03-06 08:22:00,28.0,26.0,-100.00,NW,310,11.0,19.0,92,0.00,,,-99.99,,2013-03-06 13:22:00,
2013-03-06 08:32:00,28.0,26.0,-100.00,NW,305,10.0,18.0,92,0.00,,,-99.99,,2013-03-06 13:32:00,
2013-03-06 08:42:00,28.0,26.0,-100.00,NW,310,11.0,19.0,92,0.00,,,-99.99,,2013-03-06 13:42:00,
2013-03-06 08:52:00,28.0,26.0,-100.00,WNW,300,13.0,20.0,92,0.00,,,-99.99,,2013-03-06 13:52:00,
2013-03-06 09:02:00,28.0,26.0,-100.00,NW,305,12.0,19.0,92,0.00,,,-99.99,,2013-03-06 14:02:00,
2013-03-06 09:11:00,28.0,26.0,-100.00,WNW,300,13.0,21.0,92,0.00,,,-99.99,,2013-03-06 14:11:00,
2013-03-06 09:22:00,28.0,26.0,-100.00,NW,305,16.0,19.0,92,0.00,,,-99.99,,2013-03-06 14:22:00,
2013-03-06 09:32:00,28.0,26.0,-100.00,NW,305,12.0,20.0,92,0.00,,,-99.99,,2013-03-06 14:32:00,
2013-03-06 09:42:00,28.0,26.0,-100.00,WNW,300,12.0,21.0,91,0.00,,,-99.99,,2013-03-06 14:42:00,
2013-03-06 09:52:00,28.0,26.0,-100.00,NW,320,11.0,18.0,91,0.00,,,-99.99,,2013-03-06 14:52:00,
2013-03-06 10:02:00,28.0,26.0,-100.00,NW,305,12.0,17.0,91,0.00,,,-99.99,,2013-03-06 15:02:00,
2013-03-06 10:11:00,28.0,26.0,-100.00,WNW,300,11.0,17.0,91,0.00,,,-99.99,,2013-03-06 15:11:00,
2013-03-06 10:22:00,28.0,26.0,-100.00,West,275,13.0,16.0,90,0.00,,,-99.99,,2013-03-06 15:22:00,
2013-03-06 10:32:00,29.0,26.0,-100.00,WNW,300,11.0,22.0,90,0.00,,,-99.99,,2013-03-06 15:32:00,
2013-03-06 10:42:00,29.0,26.0,-100.00,WNW,295,9.0,20.0,90,0.00,,,-99.99,,2013-03-06 15:42:00,
2013-03-06 10:52:00,29.0,26.0,-100.00,WNW,295,9.0,20.0,90,0.00,,,-99.99,,2013-03-06 15:52:00,
2013-03-06 11:02:00,29.0,26.0,-100.00,WNW,295,11.0,17.0,89,0.00,,,-99.99,,2013-03-06 16:02:00,
2013-03-06 11:11:00,29.0,26.0,-100.00,WNW,295,11.0,16.0,89,0.00,,,-99.99,,2013-03-06 16:11:00,
2013-03-06 11:21:00,28.0,26.0,-100.00,WNW,285,14.0,19.0,89,0.00,,,-99.99,,2013-03-06 16:21:00,
2013-03-06 11:32:00,29.0,26.0,-100.00,WNW,295,12.0,21.0,88,0.00,,,-99.99,,2013-03-06 16:32:00,
2013-03-06 11:42:00,30.0,26.0,-100.00,WNW,295,7.0,16.0,87,0.00,,,-99.99,,2013-03-06 16:42:00,
2013-03-06 11:52:00,30.0,26.0,-100.00,WNW,295,11.0,16.0,86,0.00,,,-99.99,,2013-03-06 16:52:00,
2013-03-06 12:01:00,30.0,26.0,-100.00,West,280,11.0,17.0,85,0.00,,,-99.99,,2013-03-06 17:01:00,
2013-03-06 12:11:00,30.0,26.0,-100.00,WNW,300,9.0,16.0,85,0.00,,,-99.99,,2013-03-06 17:11:00,
2013-03-06 12:22:00,31.0,26.0,-100.00,WNW,295,9.0,16.0,84,0.00,,,-99.99,,2013-03-06 17:22:00,
2013-03-06 12:32:00,31.0,26.0,-100.00,West,275,11.0,16.0,83,0.00,,,-99.99,,2013-03-06 17:32:00,
2013-03-06 12:42:00,31.0,27.0,-100.00,West,275,9.0,15.0,83,0.00,,,-99.99,,2013-03-06 17:42:00,
2013-03-06 12:52:00,31.0,26.0,-100.00,WNW,295,11.0,16.0,83,0.00,,,-99.99,,2013-03-06 17:52:00,
2013-03-06 13:02:00,30.0,26.0,-100.00,WNW,295,10.0,13.0,84,0.00,,,-99.99,,2013-03-06 18:02:00,
2013-03-06 13:28:00,31.0,26.0,-100.00,NW,305,11.0,18.0,83,0.00,,,-99.99,,2013-03-06 18:28:00,
2013-03-06 13:42:00,31.0,26.0,-100.00,West,275,12.0,17.0,81,0.00,,,-99.99,,2013-03-06 18:42:00,
2013-03-06 13:52:00,31.0,26.0,-100.00,West,280,11.0,16.0,81,0.00,,,-99.99,,2013-03-06 18:52:00,
2013-03-06 14:02:00,32.0,27.0,-100.00,West,275,8.0,12.0,81,0.00,,,-99.99,,2013-03-06 19:02:00,
2013-03-06 14:11:00,32.0,27.0,-100.00,WNW,285,11.0,16.0,81,0.00,,,-99.99,,2013-03-06 19:11:00,
2013-03-06 14:22:00,31.0,26.0,-100.00,West,280,11.0,16.0,80,0.00,,,-99.99,,2013-03-06 19:22:00,
2013-03-06 14:32:00,31.0,26.0,-100.00,West,275,11.0,14.0,81,0.00,,,-99.99,,2013-03-06 19:32:00,
2013-03-06 14:43:00,32.0,26.0,-100.00,WNW,285,12.0,14.0,80,0.00,,,-99.99,,2013-03-06 19:43:00,
2013-03-06 14:52:00,31.0,26.0,-100.00,West,275,12.0,16.0,80,0.00,,,-99.99,,2013-03-06 19:52:00,
2013-03-06 15:02:00,32.0,26.0,-100.00,West,270,11.0,14.0,80,0.00,,,-99.99,,2013-03-06 20:02:00,
2013-03-06 15:12:00,32.0,27.0,-100.00,WNW,285,9.0,14.0,80,0.00,,,-99.99,,2013-03-06 20:12:00,
2013-03-06 15:22:00,32.0,27.0,-100.00,West,275,8.0,14.0,80,0.00,,,-99.99,,2013-03-06 20:22:00,
2013-03-06 15:32:00,32.0,26.0,-100.00,NW,310,9.0,12.0,79,0.00,,,-99.99,,2013-03-06 20:32:00,
2013-03-06 15:42:00,32.0,27.0,-100.00,West,280,7.0,14.0,79,0.00,,,-99.99,,2013-03-06 20:42:00,
2013-03-06 15:52:00,32.0,27.0,-100.00,WNW,285,7.0,9.0,79,0.00,,,-99.99,,2013-03-06 20:52:00,
2013-03-06 16:02:00,32.0,26.0,-100.00,WNW,285,9.0,14.0,79,0.00,,,-99.99,,2013-03-06 21:02:00,
2013-03-06 16:12:00,32.0,26.0,-100.00,WNW,285,9.0,14.0,79,0.00,,,-99.99,,2013-03-06 21:12:00,
2013-03-06 16:22:00,32.0,26.0,-100.00,West,275,9.0,14.0,79,0.00,,,-99.99,,2013-03-06 21:22:00,
2013-03-06 16:32:00,32.0,26.0,-100.00,West,275,9.0,14.0,80,0.00,,,-99.99,,2013-03-06 21:32:00,
2013-03-06 16:42:00,32.0,26.0,-100.00,West,270,9.0,12.0,79,0.00,,,-99.99,,2013-03-06 21:42:00,
2013-03-06 16:52:00,32.0,26.0,-100.00,West,275,8.0,12.0,79,0.00,,,-99.99,,2013-03-06 21:52:00,
2013-03-06 17:02:00,32.0,26.0,-100.00,West,270,8.0,12.0,78,0.00,,,-99.99,,2013-03-06 22:02:00,
2013-03-06 17:11:00,32.0,26.0,-100.00,West,260,9.0,14.0,78,0.00,,,-99.99,,2013-03-06 22:11:00,
2013-03-06 17:22:00,32.0,26.0,-100.00,West,265,8.0,12.0,78,0.00,,,-99.99,,2013-03-06 22:22:00,
2013-03-06 17:32:00,32.0,26.0,-100.00,West,275,9.0,12.0,78,0.00,,,-99.99,,2013-03-06 22:32:00,
2013-03-06 17:42:00,32.0,26.0,-100.00,West,270,6.0,12.0,79,0.00,,,-99.99,,2013-03-06 22:42:00,
2013-03-06 17:51:00,31.0,26.0,-100.00,WSW,255,11.0,14.0,80,0.00,,,-99.99,,2013-03-06 22:51:00,
2013-03-06 18:01:00,31.0,26.0,-100.00,WSW,250,10.0,13.0,82,0.00,,,-99.99,,2013-03-06 23:01:00,
2013-03-06 18:11:00,30.0,26.0,-100.00,WSW,250,9.0,15.0,82,0.00,,,-99.99,,2013-03-06 23:11:00,
2013-03-06 18:21:00,30.0,26.0,-100.00,West,260,10.0,14.0,82,0.00,,,-99.99,,2013-03-06 23:21:00,
2013-03-06 18:32:00,30.0,25.0,-100.00,West,265,10.0,15.0,82,0.00,,,-99.99,,2013-03-06 23:32:00,
2013-03-06 18:42:00,30.0,26.0,-100.00,WSW,255,8.0,16.0,83,0.00,,,-99.99,,2013-03-06 23:42:00,
2013-03-06 18:52:00,30.0,25.0,-100.00,WSW,255,12.0,16.0,82,0.00,,,-99.99,,2013-03-06 23:52:00,
2013-03-06 19:02:00,30.0,25.0,-100.00,WSW,255,11.0,17.0,82,0.00,,,-99.99,,2013-03-07 00:02:00,
2013-03-06 19:11:00,30.0,25.0,-100.00,West,260,13.0,17.0,83,0.00,,,-99.99,,2013-03-07 00:11:00,
2013-03-06 19:21:00,30.0,25.0,-100.00,West,260,12.0,18.0,82,0.00,,,-99.99,,2013-03-07 00:21:00,
2013-03-06 19:32:00,30.0,25.0,-100.00,West,260,12.0,16.0,82,0.00,,,-99.99,,2013-03-07 00:32:00,
2013-03-06 19:42:00,29.0,25.0,-100.00,WSW,250,13.0,17.0,82,0.00,,,-99.99,,2013-03-07 00:42:00,
2013-03-06 19:52:00,29.0,25.0,-100.00,WSW,255,9.0,14.0,83,0.00,,,-99.99,,2013-03-07 00:52:00,
2013-03-06 20:01:00,29.0,25.0,-100.00,West,265,9.0,17.0,82,0.00,,,-99.99,,2013-03-07 01:01:00,
2013-03-06 20:11:00,29.0,25.0,-100.00,WSW,255,11.0,17.0,83,0.00,,,-99.99,,2013-03-07 01:11:00,
2013-03-06 20:21:00,29.0,25.0,-100.00,WSW,255,9.0,14.0,83,0.00,,,-99.99,,2013-03-07 01:21:00,
2013-03-06 20:32:00,29.0,25.0,-100.00,West,260,9.0,13.0,83,0.00,,,-99.99,,2013-03-07 01:32:00,
2013-03-06 20:42:00,29.0,25.0,-100.00,WSW,255,8.0,15.0,83,0.00,,,-99.99,,2013-03-07 01:42:00,
2013-03-06 20:51:00,29.0,25.0,-100.00,WSW,255,7.0,12.0,83,0.00,,,-99.99,,2013-03-07 01:51:00,
2013-03-06 21:01:00,29.0,25.0,-100.00,WSW,250,11.0,14.0,83,0.00,,,-99.99,,2013-03-07 02:01:00,
2013-03-06 21:11:00,29.0,24.0,-100.00,WSW,255,12.0,16.0,82,0.00,,,-99.99,,2013-03-07 02:11:00,
2013-03-06 21:21:00,29.0,25.0,-100.00,West,265,11.0,16.0,83,0.00,,,-99.99,,2013-03-07 02:21:00,
2013-03-06 21:32:00,29.0,25.0,-100.00,WSW,250,9.0,16.0,83,0.00,,,-99.99,,2013-03-07 02:32:00,
2013-03-06 21:41:00,29.0,25.0,-100.00,WSW,250,9.0,16.0,83,0.00,,,-99.99,,2013-03-07 02:41:00,
2013-03-06 21:51:00,29.0,25.0,-100.00,WSW,250,9.0,16.0,83,0.00,,,-99.99,,2013-03-07 02:51:00,
2013-03-06 22:02:00,29.0,25.0,-100.00,WSW,255,7.0,12.0,83,0.00,,,-99.99,,2013-03-07 03:02:00,
2013-03-06 22:11:00,29.0,25.0,-100.00,WSW,245,7.0,14.0,84,0.00,,,-99.99,,2013-03-07 03:11:00,
2013-03-06 22:21:00,29.0,25.0,-100.00,West,260,7.0,11.0,84,0.00,,,-99.99,,2013-03-07 03:21:00,
2013-03-06 22:32:00,29.0,25.0,-100.00,WSW,255,7.0,11.0,84,0.00,,,-99.99,,2013-03-07 03:32:00,
2013-03-06 22:42:00,29.0,25.0,-100.00,West,260,7.0,11.0,84,0.00,,,-99.99,,2013-03-07 03:42:00,
2013-03-06 22:52:00,29.0,25.0,-100.00,WSW,255,11.0,14.0,84,0.00,,,-99.99,,2013-03-07 03:52:00,
2013-03-06 23:02:00,29.0,24.0,-100.00,WSW,250,7.0,13.0,84,0.00,,,-99.99,,2013-03-07 04:02:00,
2013-03-06 23:11:00,29.0,24.0,-100.00,West,265,9.0,12.0,84,0.00,,,-99.99,,2013-03-07 04:11:00,
2013-03-06 23:22:00,29.0,24.0,-100.00,West,265,7.0,12.0,84,0.00,,,-99.99,,2013-03-07 04:22:00,
2013-03-06 23:32:00,29.0,24.0,-100.00,West,260,7.0,11.0,83,0.00,,,-99.99,,2013-03-07 04:32:00,
2013-03-06 23:42:00,29.0,24.0,-100.00,WSW,250,6.0,10.0,83,0.00,,,-99.99,,2013-03-07 04:42:00,
2013-03-06 23:52:00,29.0,24.0,-100.00,WSW,250,6.0,10.0,83,0.00,,,-99.99,,2013-03-07 04:52:00,